Location: Unspecified
(46.0725°N, 13.7344°E)
Time: 02:04:41
(UTC+02:00)

CZ-3 Stage 3 - Visible Passes

Search period start: 26 October 2021 00:00
Search period end: 04 November 2021 23:00
Orbit: 482 x 34701 km, 30.4° (Epoch: 25 October)

Date Brightness Start Highest point End Pass type
(mag) Time Alt. Az. Time Alt. Az. Time Alt. Az.
28 Oct 6.8 08:25:56 10° SSE 14:08:36 41° SSE 14:32:10 10° ESE visible
29 Oct 8.9 08:23:49 10° SE 09:55:14 17° ESE 10:35:33 10° ESE visible
31 Oct 6.9 07:09:26 10° SSE 12:56:48 42° SSE 13:20:50 10° E visible
01 Nov 8.9 07:07:23 10° SE 08:43:29 17° ESE 09:24:56 10° ESE visible
03 Nov 6.9 06:53:05 10° SSE 12:44:59 43° SSE 13:09:29 10° E visible
04 Nov 8.9 06:51:05 10° SE 08:31:42 18° ESE 09:14:15 10° E visible
